Regional Weather Roundup
Issued by NWS Columbia, SC

Home | Current Version | Previous Version | Text Only | Print | Product List | Glossary On
Versions: 1 2 3 4 5 6 7 8 9 10 11 12 13 14 15 16 17 18 19 20 21 22 23 24 25 26 27 28 29 30 31 32 33 34 35 36 37 38 39 40 41 42 43 44 45 46 47 48 49 50
000
ASUS42 KCAE 051310
RWRCAE
REGIONAL WEATHER ROUNDUP
NATIONAL WEATHER SERVICE COLUMBIA SC
900 AM EDT SAT SEP 05 2015

NOTE: "FAIR" INDICATES FEW OR NO CLOUDS BELOW 12,000 FEET WITH NO
SIGNIFICANT WEATHER AND/OR OBSTRUCTIONS TO VISIBILITY.

NOT ALL STATIONS ARE QUALITY CONTROLLED BY THE NATIONAL
WEATHER SERVICE. USE DATA WITH CAUTION...ESPECIALLY
DEWPOINT OBSERVATIONS.

SCZ001>056-GAZ040-063>065-077-051400-
...UPSTATE SOUTH CAROLINA...

CITY           SKY/WX    TMP DP  RH WIND       PRES   REMARKS
ANDERSON       SUNNY     75  66  73 NE14      30.15R
LIBERTY        SUNNY     72  65  80 E8        30.16R
CLEMSON        SUNNY     75  65  70 NE8       30.17R
GREENVILLE     MOSUNNY   72  65  78 NE9       30.18R
GREENWOOD      SUNNY     72  68  87 N7        30.16R
GREER          PTSUNNY   72  66  83 NE7       30.16R
ROCK HILL      PTSUNNY   73  68  84 VRB6      30.17R HAZE
CHESTER        MOSUNNY   73  70  88 NE9       30.17R
LAURENS        SUNNY     70  70 100 NE7       30.15R


...CENTRAL SOUTH CAROLINA...

CITY           SKY/WX    TMP DP  RH WIND       PRES   REMARKS
COLUMBIA APT   CLOUDY    75  69  81 NE5       30.11R
COLUMBIA OWENS MOSUNNY   75  70  84 VRB3      30.12R HAZE
DARLINGTON     MOSUNNY   75  70  83 NE10      30.13R
FLORENCE       MOSUNNY   75  71  87 NE10      30.10R FOG
MCENTIRE ANGB  SUNNY     74  70  89 NE8       30.11R
ORANGEBURG     MOSUNNY   74  69  85 NE8       30.10R
SUMTER SHAW    MOSUNNY   74  71  89 NE13      30.09R
NEWBERRY       SUNNY     68  66  94 NE7         N/A
AIKEN          FAIR      72  68  88 NE8       30.14R
BARNWELL       FAIR      75  70  83 NE9       30.10R
MANNING        CLOUDY    72  70  94 N6        30.09R
CAMDEN         FAIR      75  70  83 NE9       30.13R
LANCASTER      MOSUNNY   73  73 100 NE10      30.15R
WINNSBORO      MOSUNNY   73  72  94 NE8       30.13S FOG


...EASTERN AND COASTAL SOUTH CAROLINA...

CITY           SKY/WX    TMP DP  RH WIND       PRES   REMARKS
MYRTLE BEACH   PTSUNNY   75  70  83 N14       30.08R
N MYRTLE BCH   MOSUNNY   76  72  87 NE10      30.06R FOG
CONWAY         CLOUDY    73  73 100 NE7       30.08R FOG
MARION         CLOUDY    72  70  94 N8        30.10R FOG
HARTSVILLE     PTSUNNY   73  70  88 NE8       30.12R
FLORENCE       MOSUNNY   75  71  87 NE10      30.10R FOG
DARLINGTON     MOSUNNY   75  70  83 NE10      30.13R
CHARLESTON APT MOSUNNY   75  69  81 N8        30.06R
MOUNT PLEASANT FAIR      73  72  94 N6        30.06R FOG
WALTERBORO     MOSUNNY   77  70  78 N6        30.08R
BEAUFORT       MOSUNNY   76  69  79 NE9       30.07R


...EASTERN GEORGIA...

CITY           SKY/WX    TMP DP  RH WIND       PRES   REMARKS
AUGUSTA BUSH F MOSUNNY   74  68  81 N3        30.09R
AUGUSTA DANIEL MOSUNNY   75  67  76 N5        30.11R
THOMSON        PTSUNNY   74  73  96 CALM      30.16R
WASHINGTON     FAIR      77  77 100 NE5       30.13R
STATESBORO     SUNNY     76  75  99 E3        30.08S
SAVANNAH       MOSUNNY   76  70  82 NE8       30.07R


...SOUTHERN NORTH CAROLINA...

CITY           SKY/WX    TMP DP  RH WIND       PRES   REMARKS
CHARLOTTE      PTSUNNY   75  68  78 NE10      30.18R
WADESBORO      CLOUDY    73  70  90 N6        30.15R FOG
ROCKINGHAM     CLOUDY    72  70  94 NE6       30.14R FOG
RUTHERFORDTON  CLOUDY    71  65  82 N6        30.21R
ASHEVILLE      PTSUNNY   66  61  84 CALM      30.25R

$$


USA.gov is the U.S. government's official web portal to all federal, state and local government web resources and services.